Regional Weather Roundup
Issued by NWS Pendleton, OR

Home | Current Version | Previous Version | Text Only | Print | Product List | Glossary On
Versions: 1 2 3 4 5 6 7 8 9 10 11 12 13 14 15 16 17 18 19 20 21 22 23 24 25 26 27 28 29 30 31 32 33 34 35 36 37 38 39 40 41 42 43 44 45 46 47 48 49 50
944
ASUS46 KPDT 110325
RWRPDT
PENDLETON REGIONAL WEATHER ROUNDUP
NATIONAL WEATHER SERVICE PENDLETON OREGON
700 PM PST WED FEB 10 2016

NOTE: FAIR INDICATES FEW OR NO CLOUDS BELOW 12,000 FEET WITH NO
SIGNIFICANT WEATHER AND/OR OBSTRUCTIONS TO VISIBILITY.

# INDICATES UNOFFICIAL STATION AND DATA

WAZ520-110410-
EAST SLOPES OF WASHINGTON CASCADES

CITY            SKY/WX      TMP DP  RH  WIND    PRES   REMARKS
#BUMPING DAM    N/A         37  N/A N/A S2      N/A
#CLE ELUM HS    N/A         37  32  82  CALM    30.20R
#CLE ELUM 2NW   N/A         34  32  92  CALM    N/A
#CLE ELUM LAKE  N/A         45  40  82  CALM    30.29R
#CLIFFDEL 2NW   N/A         40  33  76  N2      N/A
#GLENWOOD       N/A         46  43  89  SW6     30.33S
#MANASTASH CYN  N/A         34  30  85  CALM    30.20S
#NELSON         N/A         N/A N/A N/A CALM    30.22R
#NELSON 3SW     N/A         34  32  92  CALM    30.52F
#RONALD 2NW     N/A         42  N/A N/A CALM    30.08S
#SNOWDEN        N/A         41  31  67  CALM    N/A
#TEANAWAY 4NE   N/A         35  33  92  CALM    N/A
#TROUT LAKE 1NE N/A         41  38  89  N3      30.35R
#TROUT LAKE 1E  N/A         39  38  96  CALM    30.24R
$$

WAZ521-110410-
SIMCOE HIGHLANDS

CITY            SKY/WX      TMP DP  RH  WIND    PRES   REMARKS
#BICKLETON HS   N/A         48  35  60  W13     N/A    WCI 43
#CENTERVILLE 1SWN/A         45  40  82  CALM    30.29R
#GOLDENDALE     N/A         50  42  74  CALM    N/A
#GOLDENDALE 1NE N/A         47  34  60  CALM    N/A
#GOODNOE HILLS  N/A         47  38  71  W10     30.18S
#LYLE 6NE       N/A         48  44  86  SE2     30.28S
$$

WAZ026-110410-
KITTITAS VALLEY

CITY            SKY/WX      TMP DP  RH  WIND    PRES   REMARKS
ELLENSBURG AP   MOCLDY      33  28  82  CALM    30.27R
#ELLENSBURG CWU N/A         32  29  89  CALM    30.30R
#ELLENSBURG 3NE N/A         31  29  92  CALM    30.25S
#ELLENSBURG     N/A         34  34  100 CALM    N/A
#ELLENSBURG 1E  N/A         30  N/A N/A CALM    N/A
#KITTITAS 4N    N/A         31  27  85  E2      30.30R
#KITTITAS 3S    N/A         27  25  92  E1      30.36R
#THORP 6N       N/A         41  37  86  CALM    30.34S
$$

WAZ027-110410-
YAKIMA VALLEY

CITY            SKY/WX      TMP DP  RH  WIND    PRES   REMARKS
SUNNYSIDE AP    CLOUDY      37  35  92  N5      30.28S
YAKIMA AIRPORT  MOCLDY      40  33  76  W8      30.29R
YAKIMA-VAGABOND CLEAR       38  34  85  E3      30.26R
#DONALD 2NE     N/A         44  29  55  N2      29.12S
#GRANDVIEW      N/A         42  36  79  CALM    30.32S
#MABTON         N/A         41  38  89  CALM    30.28R
#MOXEE 2E       N/A         41  27  57  W3      30.21S
#NACHES 2SW     N/A         39  35  85  CALM    30.24S
#OUTLOOK DOT    N/A         N/A N/A N/A CALM    N/A
#SELAH 8E       N/A         37  35  92  SW6     N/A
#TERRACE HTS    N/A         38  34  85  CALM    30.29R
#TOPPENISH      N/A         42  38  86  CALM    30.22S
#WEST VALLEY    N/A         40  35  82  CALM    30.30S
#W YAKIMA       N/A         42  37  82  W2      30.31F
#WHITE SWAN 5E  N/A         40  36  85  CALM    30.32S
#WILEY CITY 3W  N/A         37  31  79  CALM    30.24S
$$

WAZ028-110410-
LOWER COLUMBIA BASIN...WASHINGTON

CITY            SKY/WX      TMP DP  RH  WIND    PRES   REMARKS
PASCO           CLOUDY      43  37  79  CALM    30.30S
PROSSER AWOS    N/A         39  36  89  W3      30.31S
RICHLAND AWOS   CLOUDY      42  38  86  CALM    30.30S
#BENTON CITY    N/A         44  39  82  W1      30.21S
#CONNELL 5N     N/A         40  38  92  CALM    30.32R
#ELTOPIA 6NW    N/A         42  39  89  CALM    29.23F
#KAHLOTUS       N/A         43  39  86  S1      30.32S
#KENNEWICK 3S   N/A         47  40  76  CALM    30.31F
#PATERSON       N/A         44  39  82  CALM    30.29F
#PROSSER        N/A         47  38  71  CALM    30.30R
#SAGEMOOR 2W    N/A         43  38  82  CALM    30.15F
#TOUCHET 2S     N/A         43  39  86  S1      30.29F
#WEST PASCO     N/A         44  38  79  NE1     30.31F
$$

WAZ029-110410-
FOOTHILLS OF THE BLUES...WASHINGTON

CITY            SKY/WX      TMP DP  RH  WIND    PRES   REMARKS
WALLA WALLA AP  CLOUDY      47  39  74  CALM    30.28F
#CLYDE 6NW      N/A         43  38  82  S1      30.31F
#DAYTON SCHOOL  N/A         43  34  70  S1      30.28F
#LOWDEN 2SE     N/A         43  40  89  CALM    30.25F
#PLEASANT VIEW 1N/A         43  38  82  S5      30.35F
#PRESCOTT       N/A         42  40  93  CALM    30.31F
#WHITMAN COLLEGEN/A         49  42  77  CALM    30.35F
#WAITSBURG 5S   N/A         47  40  76  SE1     30.40F
#WAITSBURG 8N   N/A         46  21  37  S5      30.15S
#WALLA WALLA 5E N/A         54  40  59  S8      N/A
#WALLA WALLA U  N/A         47  42  83  CALM    30.30F
#WHITMAN MISSIONN/A         44  40  86  CALM    30.32F
$$

WAZ030-110410-
BLUE MOUNTAINS...WASHINGTON

CITY            SKY/WX      TMP DP  RH  WIND    PRES   REMARKS
#DIXIE 5SE      N/A         50  35  56  S8      30.22S
#SKI BLUEWOOD   N/A         40  32  73  CALM    30.28S
$$

ORZ009-041-WAZ024-110410-
COLUMBIA RIVER GORGE

CITY            SKY/WX      TMP DP  RH  WIND    PRES   REMARKS
HOOD RIVER AP   PTCLDY      43  39  86  CALM    30.30S
THE DALLES AP   PTCLDY      47  39  74  CALM    30.31R
#ARLINGTON AIRPON/A         45  40  82  W1      30.32S
#ARLINGTON HS   N/A         46  39  76  E1      30.22R
#CELILO DOT     N/A         46  36  68  CALM    N/A
#LYLE           N/A         47  40  76  S1      30.32S
#MARYHILL 2W    N/A         47  42  83  CALM    N/A
#MOSIER 1S      N/A         44  35  70  CALM    30.29S
#MURDOCK        N/A         46  41  83  E1      30.27S
#RUFUS DOT      N/A         48  41  77  S6      N/A

$$

ORZ510-110410-
NORTH CENTRAL OREGON

CITY            SKY/WX      TMP DP  RH  WIND    PRES   REMARKS
#CHENOWITH 1W   N/A         47  44  89  W7      N/A
#COW CYN RST AREN/A         51  37  59  NE1     N/A
#DUFUR 9E       N/A         48  43  83  CALM    30.36S
#GRASS VALLEY 1SN/A         42  38  86  N3      30.36S
#KENT DOT       N/A         46  33  60  N6      N/A
#MAUPIN SCHOOL  N/A         48  41  77  CALM    30.31F
#MORO SCHOOL    N/A         43  41  93  CALM    30.29S
#SHANIKO 5WSW   N/A         51  29  42  W1      N/A
#SHANIKO 4NW    N/A         49  37  63  W6      30.30R
#TYGH VALLEY 2NEN/A         46  40  79  N1      30.31S
#WAPANITIA AIRPON/A         42  39  89  CALM    30.35S
#WASCO AIRPORT  N/A         46  40  79  S1      N/A
#WASCO 5NE      N/A         43  39  86  N1      30.32F
$$

ORZ511-110410-
CENTRAL OREGON

CITY            SKY/WX      TMP DP  RH  WIND    PRES   REMARKS
BEND AIRPORT    PTCLDY      48  36  63  CALM    30.28F
MADRAS AIRPORT  PTCLDY      50  37  61  CALM    30.29F
PRINEVILLE AP   PTCLDY      46  36  68  CALM    30.29F
REDMOND AIRPORT PTCLDY      49  34  56  CALM    30.28F
#ASHWOOD SCHOOL N/A         50  40  68  CALM    30.23F
#BEND 6E        N/A         49  32  52  CALM    30.28S
#BEND 1SW       N/A         47  38  71  CALM    N/A
#BEND-KIM LN    N/A         51  38  61  CALM    30.26F
#LAKE BILLY CHINN/A         54  N/A N/A E5      30.32S
#MADRAS         N/A         55  39  55  E2      N/A
#POWELL BUTTE 3EN/A         48  33  56  E3      N/A
#PRINEVILLE 3N  N/A         48  38  68  E5      30.31F
#WARM SPRINGS   N/A         50  42  74  SW5     30.24F

$$


ORZ509-110410-
EAST SLOPES OF OREGON CASCADES

CITY            SKY/WX      TMP DP  RH  WIND    PRES   REMARKS
SISTERS AWOS    N/A         45  36  70  CALM    30.24S
#BLUE BOX PASS  N/A         43  N/A N/A NE1     N/A
#BLACK BUTTE RNCN/A         41  36  82  CALM    30.34S
#CAMP SHERMAN   N/A         38  33  82  CALM    30.46R
#LA PINE 4NW    N/A         42  30  62  CALM    30.39F
#LAVA BUTTE DOT N/A         41  28  59  CALM    N/A
#SISTERS AIRPOR N/A         45  41  86  N1      30.17S
#SISTERS ODOT   N/A         44  N/A N/A CALM    N/A
#SISTERS 1NW    N/A         45  35  68  N6      N/A
#SISTERS 3N     N/A         41  29  62  CALM    30.26S
#SUNRIVER       N/A         40  33  76  CALM    30.38F
#SUTTLE LK DOT  N/A         35  33  92  W29G53  N/A    WCI 22
#TUMALO 3W      N/A         51  35  54  CALM    30.18F
#WANOGA BUTTE D N/A         43  30  60  CALM    N/A

$$

ORZ044-110410-
LOWER COLUMBIA BASIN...OREGON

CITY            SKY/WX      TMP DP  RH  WIND    PRES   REMARKS
HERMISTON       CLOUDY      42  37  82  NE5     30.28F
#BOARDMAN SCHOOLN/A         43  39  86  CALM    30.30F
#BOARDMAN 8SW   N/A         44  40  86  N2      30.30F
#ECHO 8SW       N/A         44  39  82  N3      30.28F
#I-84 EX 198 DOTN/A         48  40  74  NE8     N/A
#IONE SCHOOL    N/A         49  31  50  CALM    30.24F
#IRRIGON 4NW    N/A         44  43  96  E2      N/A
#UMATILLA SCHOOLN/A         41  40  96  CALM    30.28F
#UMATILLA       N/A         44  36  73  CALM    30.24F
$$

ORZ507-110410-
NORTHERN FOOTHILLS OF THE BLUES

CITY            SKY/WX      TMP DP  RH  WIND    PRES   REMARKS
PENDLETON AIRPT CLOUDY      45  39  79  SE10    30.29S
#ADAMS 3WNW     N/A         44  39  82  CALM    30.34S
#ATHENA         N/A         49  38  66  S1      30.35F
#CAYUSE         N/A         49  40  71  E6      30.32F
#HELIX SCHOOL   N/A         43  40  89  N6      30.33S
#HELIX 3N       N/A         45  39  79  N14     30.23F WCI 39
#HELIX 6SW      N/A         45  40  82  E9      30.26F
#HOLDMAN 5SE    N/A         47  42  83  SE5     30.25F
#HOLDMAN 6E     N/A         47  40  76  NW9     30.12F
#M-F GROVE ELEM N/A         50  38  63  W1      30.26F
#M-FREEWATER 5SEN/A         46  40  79  CALM    30.27F
#PENDLETON DNTN N/A         47  36  65  CALM    30.31S
#PDT AQUATIC CTRN/A         47  38  71  CALM    30.28F
#PDT SUNRIDGE   N/A         46  41  83  CALM    30.30F
#PENDLETON 7NW  N/A         46  40  79  SE2     32.08S
#PILOT ROCK     N/A         45  35  68  S1      30.29S
#TUTUILLA       N/A         49  40  71  CALM    30.32F
#UMAPINE 2E     N/A         47  42  83  CALM    30.25F
#WESTON SCHOOL  N/A         52  32  46  S5      30.23F

$$

ORZ508-110410-
SOUTHERN FOOTHILLS OF THE BLUES

CITY            SKY/WX      TMP DP  RH  WIND    PRES   REMARKS
LEXINGTON       CLOUDY      48  41  77  E8      30.32F
#CONDON SCHOOL  N/A         46  39  76  E3      30.22F
#CONDON 5W      N/A         46  37  71  CALM    30.26F
#FOSSIL SCHOOL  N/A         51  38  61  CALM    30.22S
#HEPPNER EOC    N/A         46  40  79  E7      30.26F
#HEPPNER 4NE    N/A         45  39  79  SE1     30.31F
#LEXINGTON 2SE  N/A         50  42  74  SE7     30.26F
#MIKKALO        N/A         47  39  74  S8      30.37S
#OLEX 4N        N/A         50  43  77  S7      30.26S
#RUGGS 5NE      N/A         44  40  86  N1      30.46R
#RUGGS 2SW      N/A         45  38  76  SW7     30.32F

$$

ORZ502-503-110410-
BLUE MOUNTAINS

CITY            SKY/WX      TMP DP  RH  WIND    PRES   REMARKS
MEACHAM         PTCLDY      37  29  72  CALM    30.32F
#BATTLE MTN DOT N/A         44  35  70  CALM    N/A
#LADD CYN SMT   N/A         34  27  75  SE21    N/A    WCI 22
#LADD CREEK ODOTN/A         37  19  48  W2      N/A
#LONG CREEK HS  N/A         46  39  76  CALM    N/A
#N POWDER DOT   N/A         34  29  82  NW2     N/A
#PIKES PEAK     N/A         48  33  56  SW14    27.99S WCI 42
#TOLLGATE       N/A         39  31  73  SW1     30.14S
#TROY SCHOOL    N/A         46  35  65  SW7     30.25R
#UKIAH          N/A         37  33  85  CALM    30.32R
#WESTON 4E      N/A         43  33  67  E7      30.29S
$$

ORZ505-110410-
JOHN DAY BASIN

CITY            SKY/WX      TMP DP  RH  WIND    PRES   REMARKS
JOHN DAY        MOCLDY      50  33  52  SE7     30.32S
#MITCHELL       N/A         47  39  74  CALM    30.44R
#MITCHELL 8NW   N/A         50  34  54  CALM    30.48S
#MONUMENT HS    N/A         47  35  63  CALM    30.23R
#MT. VERNON 5SE N/A         48  31  51  CALM    30.27S
#SPRAY SCHOOL   N/A         45  N/A N/A CALM    N/A
#WINLOCK        N/A         45  34  65  CALM    30.25S
$$

ORZ506-110410-
OCHOCO AND JOHN DAY HIGHLANDS

CITY            SKY/WX      TMP DP  RH  WIND    PRES   REMARKS
#BUCK CREEK DOT N/A         35  35  100 SE9     N/A
#HORSE RIDGE DO N/A         47  35  63  W1      N/A
#KEYES SMT DOT  N/A         49  33  54  CALM    N/A
#PAULINA SCHOOL N/A         47  33  58  CALM    30.25S
#PINE MTN OBS   N/A         45  30  55  CALM    N/A
#PRAIRIE CITY   N/A         46  35  65  CALM    30.29R
#SENECA         N/A         33  N/A N/A CALM    N/A
#SENECA 9NW     N/A         34  30  85  CALM    30.48R
$$

ORZ049-110410-
GRANDE RONDE VALLEY

CITY            SKY/WX      TMP DP  RH  WIND    PRES   REMARKS
LA GRANDE       CLOUDY      39  28  64  SE7     30.35S
#COVE           N/A         40  34  79  CALM    30.39R
#COVE SCHOOL    N/A         40  33  76  CALM    30.36R
#COVE 6NW       N/A         39  31  73  S8      30.26S
#ELGIN 3N       N/A         39  28  64  S3      30.31S
#ELGIN 1E       N/A         40  32  73  CALM    N/A
#IMBLER SCHOOL  N/A         39  31  73  S13     30.30S WCI 31
#ISLAND CITY 4N N/A         53  51  93  CALM    30.29S
#LADD CYN DOT   N/A         40  32  73  S21     N/A    WCI 30
#UNION 1S       N/A         38  32  79  SW12    30.37S WCI 30
$$

ORZ050-110410-
WALLOWA COUNTY

CITY            SKY/WX      TMP DP  RH  WIND    PRES   REMARKS
JOSEPH AIRPORT  CLOUDY      N/A N/A N/A CALM    30.34S
#ENTERPRISE AP  N/A         32  30  92  CALM    30.24S
#ENTERPRISE HS  N/A         33  31  92  CALM    30.32S
#IMNAHA SCHOOL  N/A         50  34  54  S5      30.30S
#IMNAHA 10S     N/A         45  33  63  CALM    30.29R
#JOSEPH 3N      N/A         31  28  88  CALM    30.32S
#JOSEPH 3W      N/A         34  28  78  CALM    30.13S
#LOSTINE        N/A         31  29  92  CALM    30.28S
#MT HOWARD 8000 N/A         37  21  52  CALM    30.36S
#PROMISE 1S     N/A         34  30  85  CALM    30.54R
#WALLOWA SCHOOL N/A         32  29  89  CALM    30.31F



$$



USA.gov is the U.S. government's official web portal to all federal, state and local government web resources and services.